Fes, Morocco

5:27 AM WET on February 24, 2017 (GMT +0000)
Saiss

Weather History for GMFF - November, 2012

Change the Weather History Date:

Friday, November 30, 2012

  Actual Average Record
Temperature  
Mean Temperature 48 °F -  
Max Temperature 53 °F 59 °F 73 °F (2015)
Min Temperature 42 °F 40 °F 35 °F (1996)
Degree Days  
Heating Degree Days 18    
Moisture  
Dew Point 38 °F    
Average Humidity 72    
Maximum Humidity 81    
Minimum Humidity 50    
Precipitation  
Precipitation 0.67 in 0.11 in - ()
Sea Level Pressure  
Sea Level Pressure 29.85 in    
Wind  
Wind Speed 15 mph ()    
Max Wind Speed 30 mph    
Max Gust Speed 43 mph    
Visibility 5.0 miles    
Events Rain    
Averages and records for this station are not official NWS values.
T = Trace of Precipitation, MM = Missing Value Source: Averaged Metar Reports

Daily Weather History Graph

Daily Weather History Graph

Search for Another Location

Airport or City:

Trip Planner

Search our weather history database for the weather conditions in past years. The results will help you decide how hot, cold, wet, or windy it might be!

Date:

Astronomy

Nov. 30, 2012 Rise Set
Actual Time 7:06 AM WET 5:10 PM WET
Civil Twilight 6:39 AM WET 5:38 PM WET
Nautical Twilight 6:08 AM WET 6:09 PM WET
Astronomical Twilight 5:38 AM WET 6:39 PM WET
Moon 6:52 PM WET (11/30) 8:28 AM WET (11/30)
Length of Visible Light 10h 59m
Length of Day
10h 04m
Full, 97% of the Moon is Illuminated
Nov 30
Full
Dec 6
Last Quarter
Dec 13
New
Dec 20
First Quarter
Dec 28
Full

Hourly Weather History & Observations

Time (WET) Temp. Windchill Dew Point Humidity Pressure Visibility Wind Dir Wind Speed Gust Speed Precip Events Conditions
12:00 AM 45 °F - 37 °F 66% 30.08 in 6 mi WSW 12.7 mph - -   Mostly Cloudy
12:00 AM 44.6 °F 38.8 °F 37.4 °F 76% 30.04 in 6.2 mi WSW 11.5 mph - N/A   Mostly Cloudy
12:30 AM 44.6 °F 38.1 °F 35.6 °F 71% 30.01 in 6.2 mi WSW 13.8 mph - N/A   Mostly Cloudy
1:00 AM 44.6 °F 38.1 °F 35.6 °F 71% 30.01 in 6.2 mi WSW 13.8 mph - N/A   Mostly Cloudy
1:30 AM 46.4 °F 39.5 °F 37.4 °F 71% 30.01 in 6.2 mi WSW 17.3 mph - N/A   Partly Cloudy
2:00 AM 46.4 °F 40.4 °F 35.6 °F 66% 30.01 in - WSW 13.8 mph - N/A   Mostly Cloudy
2:30 AM 46.4 °F 39.2 °F 37.4 °F 71% 29.98 in 6.2 mi WSW 18.4 mph - N/A   Mostly Cloudy
3:00 AM 44 °F - 36 °F 64% 30.03 in 6 mi WSW 11.5 mph - -   Mostly Cloudy
3:00 AM 44.6 °F 38.8 °F 37.4 °F 76% 29.98 in 6.2 mi WSW 11.5 mph - N/A   Mostly Cloudy
3:30 AM 44.6 °F 38.1 °F 35.6 °F 71% 29.98 in 6.2 mi WSW 13.8 mph - N/A   Mostly Cloudy
4:00 AM 46.4 °F 40.7 °F 35.6 °F 66% 29.98 in 6.2 mi WSW 12.7 mph - N/A   Mostly Cloudy
4:30 AM 46.4 °F 39.8 °F 35.6 °F 66% 29.95 in 6.2 mi WSW 16.1 mph - N/A   Mostly Cloudy
5:00 AM 46.4 °F 38.5 °F 35.6 °F 66% 29.92 in 6.2 mi SW 21.9 mph - N/A   Mostly Cloudy
5:30 AM 48.2 °F - 35.6 °F 62% 29.92 in 6.2 mi WSW 17.3 mph - N/A   Mostly Cloudy
6:00 AM 46 °F - 37 °F 61% 29.96 in 6 mi SW 13.8 mph - -   Mostly Cloudy
6:00 AM 46.4 °F 40.4 °F 37.4 °F 71% 29.92 in 6.2 mi SW 13.8 mph - N/A   Mostly Cloudy
7:00 AM 46.4 °F 40.4 °F 35.6 °F 66% 29.92 in 6.2 mi SW 13.8 mph - N/A   Mostly Cloudy
8:00 AM 46.4 °F 41.1 °F 35.6 °F 66% 29.89 in 6.2 mi SSW 11.5 mph - N/A   Scattered Clouds
9:00 AM 50 °F - 37 °F 50% 29.85 in 6 mi WSW 16.1 mph - -   Partly Cloudy
9:00 AM 50.0 °F - 37.4 °F 62% 29.83 in 6.2 mi WSW 16.1 mph - N/A   Scattered Clouds
9:30 AM 50.0 °F - 37.4 °F 62% 29.83 in 6.2 mi WSW 21.9 mph - N/A   Mostly Cloudy
10:00 AM 48.2 °F - 39.2 °F 71% 29.83 in 6.2 mi WSW 18.4 mph - N/A   Mostly Cloudy
10:11 AM 48.2 °F - 39.2 °F 71% 29.86 in 5.0 mi WSW 18.4 mph 32.2 mph N/A   Mostly Cloudy
10:30 AM 50.0 °F - 41.0 °F 71% 29.83 in 6.2 mi WSW 19.6 mph - N/A   Mostly Cloudy
11:00 AM 46.4 °F 37.9 °F 41.0 °F 81% 29.83 in 3.7 mi WSW 25.3 mph - N/A Rain Light Rain
11:30 AM 46.4 °F 37.9 °F 37.4 °F 71% 29.80 in 3.7 mi WSW 25.3 mph - N/A   Mostly Cloudy
12:00 PM 47 °F - 42 °F 76% 29.87 in 4 mi WSW 24.2 mph - -   Overcast
12:00 PM 46.4 °F 39.0 °F 39.2 °F 76% 29.80 in 3.7 mi WSW 19.6 mph - N/A Rain Light Rain
12:30 PM 44.6 °F 36.4 °F 37.4 °F 76% 29.77 in 2.5 mi WSW 20.7 mph - N/A   Mostly Cloudy
1:00 PM 46.4 °F 37.5 °F 39.2 °F 76% 29.74 in 3.7 mi WSW 27.6 mph - N/A Rain Light Rain
1:30 PM 48.2 °F - 39.2 °F 71% 29.74 in 3.7 mi WSW 28.8 mph 42.6 mph N/A   Mostly Cloudy
2:00 PM 46.4 °F 37.2 °F 39.2 °F 76% 29.77 in 3.7 mi West 29.9 mph - N/A Rain Light Rain
2:30 PM 44.6 °F 35.3 °F 37.4 °F 76% 29.74 in 3.7 mi WSW 26.5 mph - N/A   Mostly Cloudy
3:00 PM 45 °F - 39 °F 72% 29.81 in 4 mi WSW 20.7 mph - - Rain Light Rain
3:00 PM 44.6 °F 36.4 °F 39.2 °F 81% 29.74 in 3.7 mi WSW 20.7 mph - N/A   Mostly Cloudy
3:30 PM 46.4 °F 39.2 °F 39.2 °F 76% 29.74 in 6.2 mi WSW 18.4 mph - N/A   Mostly Cloudy
4:00 PM 46.4 °F 39.8 °F 39.2 °F 76% 29.74 in 3.7 mi WSW 16.1 mph - N/A   Mostly Cloudy
4:30 PM 46.4 °F 39.2 °F 39.2 °F 76% 29.74 in 3.7 mi WSW 18.4 mph - N/A   Mostly Cloudy
5:00 PM 44.6 °F 38.1 °F 37.4 °F 76% 29.74 in 3.7 mi West 13.8 mph - N/A   Mostly Cloudy
5:30 PM 44.6 °F 36.9 °F 37.4 °F 76% 29.74 in 6.2 mi WSW 18.4 mph - N/A   Mostly Cloudy
6:00 PM 44 °F - 37 °F 70% 29.85 in 3 mi West 17.3 mph - - Rain Light Rain
6:00 PM 42.8 °F 34.5 °F 37.4 °F 81% 29.77 in 3.1 mi West 18.4 mph - N/A   Mostly Cloudy
6:30 PM 42.8 °F 38.0 °F 37.4 °F 81% 29.80 in 3.1 mi WSW 8.1 mph - N/A   Mostly Cloudy
7:00 PM 42.8 °F 36.6 °F 37.4 °F 81% 29.80 in 3.1 mi SW 11.5 mph - N/A   Mostly Cloudy
7:30 PM 44.6 °F 38.4 °F 37.4 °F 76% 29.80 in 3.7 mi WSW 12.7 mph - N/A   Mostly Cloudy
8:00 PM 44.6 °F 38.1 °F 37.4 °F 76% 29.80 in 3.7 mi WSW 13.8 mph - N/A   Mostly Cloudy
8:30 PM 44.6 °F 38.4 °F 37.4 °F 76% 29.77 in 3.7 mi SW 12.7 mph - N/A   Mostly Cloudy
9:00 PM 47 °F - 40 °F 67% 29.82 in 4 mi WSW 18.4 mph - - Rain Light Rain
9:00 PM 44.6 °F 37.2 °F 37.4 °F 76% 29.77 in 6.2 mi WSW 17.3 mph - N/A   Mostly Cloudy
9:30 PM 44.6 °F 38.1 °F 37.4 °F 76% 29.77 in 6.2 mi WSW 13.8 mph - N/A   Mostly Cloudy
10:00 PM 44.6 °F 36.9 °F 37.4 °F 76% 29.77 in 6.2 mi WSW 18.4 mph - N/A   Mostly Cloudy
10:30 PM 44.6 °F 36.6 °F 35.6 °F 71% 29.77 in 6.2 mi WSW 19.6 mph - N/A   Mostly Cloudy
11:00 PM 44.6 °F 36.6 °F 37.4 °F 76% 29.77 in 3.7 mi WSW 19.6 mph - N/A   Mostly Cloudy
11:30 PM 42.8 °F 34.0 °F 35.6 °F 76% 29.74 in 3.7 mi SW 20.7 mph - N/A   Mostly Cloudy